TimeEST,TemperatureF,Dew PointF,Humidity,Sea Level PressureIn,VisibilityMPH,Wind Direction,Wind SpeedMPH,Gust SpeedMPH,PrecipitationIn,Events,Conditions,WindDirDegrees,DateUTC
12:54 AM,19.0,15.1,85,29.95,10.0,West,9.2,-,0.00,,Overcast,260,2013-02-03 05:54:00
1:54 AM,19.0,15.1,85,29.94,4.0,West,5.8,-,0.00,Snow,Light Snow,260,2013-02-03 06:54:00
2:28 AM,17.6,15.8,93,29.82,2.5,West,4.6,-,0.00,Snow,Light Snow,260,2013-02-03 07:28:00
2:54 AM,18.0,16.0,92,29.92,2.5,West,4.6,-,0.00,Snow,Light Snow,260,2013-02-03 07:54:00
3:26 AM,17.6,15.8,93,29.79,2.5,West,5.8,-,0.00,Snow,Light Snow,270,2013-02-03 08:26:00
3:54 AM,18.0,16.0,92,29.89,2.5,West,3.5,-,0.00,Snow,Light Snow,270,2013-02-03 08:54:00
4:01 AM,17.6,15.8,93,29.78,2.0,West,3.5,-,0.00,Snow,Light Snow,270,2013-02-03 09:01:00
4:36 AM,17.6,15.8,93,29.77,2.0,West,4.6,-,0.00,Snow,Light Snow,270,2013-02-03 09:36:00
4:43 AM,17.6,15.8,93,29.77,2.0,West,4.6,-,0.01,Snow,Light Snow,260,2013-02-03 09:43:00
4:54 AM,18.0,16.0,92,29.87,2.0,Calm,Calm,-,0.01,Snow,Light Snow,0,2013-02-03 09:54:00
5:42 AM,17.6,15.8,93,29.76,2.0,West,4.6,-,0.00,Snow,Light Snow,270,2013-02-03 10:42:00
5:54 AM,18.0,16.0,92,29.86,2.5,West,3.5,-,0.00,Snow,Light Snow,270,2013-02-03 10:54:00
6:12 AM,17.6,15.8,93,29.76,2.5,WSW,4.6,-,0.00,Snow,Light Snow,250,2013-02-03 11:12:00
6:32 AM,17.6,15.8,93,29.76,3.0,West,4.6,-,0.00,Snow,Light Snow,260,2013-02-03 11:32:00
6:49 AM,17.6,15.8,93,29.76,3.0,WSW,3.5,-,0.00,Snow,Light Snow,250,2013-02-03 11:49:00
6:54 AM,18.0,16.0,92,29.87,3.0,WSW,3.5,-,0.00,Snow,Light Snow,250,2013-02-03 11:54:00
7:09 AM,17.6,15.8,93,29.76,2.0,West,4.6,-,0.00,Snow,Light Snow,260,2013-02-03 12:09:00
7:21 AM,17.6,15.8,93,29.76,2.5,SW,3.5,-,0.00,Snow,Light Snow,230,2013-02-03 12:21:00
7:32 AM,17.6,15.8,93,29.76,2.5,Calm,Calm,-,0.00,Snow,Light Snow,0,2013-02-03 12:32:00
7:39 AM,17.6,15.8,93,29.76,2.5,SW,3.5,-,0.00,Snow,Light Snow,230,2013-02-03 12:39:00
7:45 AM,17.6,15.8,93,29.76,1.8,SW,3.5,-,0.00,Snow,Light Snow,230,2013-02-03 12:45:00
7:54 AM,18.0,16.0,92,29.87,1.0,WSW,4.6,-,0.00,Snow,Light Snow,240,2013-02-03 12:54:00
8:02 AM,17.6,15.8,93,29.76,0.5,WSW,4.6,-,0.00,Fog-Snow,Snow,250,2013-02-03 13:02:00
8:12 AM,17.6,15.8,93,29.76,0.5,SW,4.6,-,0.01,Fog-Snow,Snow,230,2013-02-03 13:12:00
8:37 AM,19.4,15.8,86,29.77,0.5,WSW,5.8,-,0.01,Fog-Snow,Snow,250,2013-02-03 13:37:00
8:46 AM,19.4,15.8,86,29.76,1.0,WSW,8.1,-,0.01,Snow,Light Snow,240,2013-02-03 13:46:00
8:54 AM,19.0,17.1,92,29.87,1.0,WSW,5.8,-,0.01,Snow,Light Snow,250,2013-02-03 13:54:00
9:12 AM,19.4,15.8,86,29.76,3.0,WSW,5.8,-,0.00,Snow,Light Snow,250,2013-02-03 14:12:00
9:32 AM,19.4,15.8,86,29.76,5.0,West,9.2,-,0.00,Snow,Light Snow,260,2013-02-03 14:32:00
9:54 AM,19.9,15.1,81,29.86,1.5,West,8.1,-,0.00,Snow,Light Snow,270,2013-02-03 14:54:00
10:04 AM,19.4,15.8,86,29.75,1.5,West,5.8,-,0.00,Snow,Light Snow,270,2013-02-03 15:04:00
10:54 AM,19.9,17.1,89,29.85,1.0,WSW,6.9,-,0.00,Snow,Light Snow,250,2013-02-03 15:54:00
11:08 AM,19.4,15.8,86,29.74,2.5,WSW,5.8,-,0.00,Snow,Light Snow,250,2013-02-03 16:08:00
11:19 AM,19.4,15.8,86,29.73,1.5,WSW,8.1,-,0.00,Snow,Light Snow,240,2013-02-03 16:19:00
11:27 AM,19.4,15.8,86,29.73,2.0,WSW,8.1,-,0.00,Snow,Light Snow,240,2013-02-03 16:27:00
11:54 AM,21.0,16.0,81,29.82,2.5,West,5.8,-,0.00,Snow,Light Snow,260,2013-02-03 16:54:00
12:13 PM,21.2,15.8,80,29.71,2.5,West,6.9,-,0.00,Snow,Light Snow,260,2013-02-03 17:13:00
12:17 PM,21.2,15.8,80,29.71,3.0,WSW,10.4,-,0.00,Snow,Light Snow,240,2013-02-03 17:17:00
12:25 PM,21.2,15.8,80,29.71,3.0,West,11.5,-,0.00,Snow,Light Snow,260,2013-02-03 17:25:00
12:32 PM,21.2,15.8,80,29.71,3.0,WSW,10.4,-,0.00,Snow,Light Snow,250,2013-02-03 17:32:00
12:54 PM,21.0,15.1,78,29.80,6.0,West,13.8,20.7,0.00,,Haze,270,2013-02-03 17:54:00
1:40 PM,21.2,15.8,80,29.69,2.5,WSW,11.5,-,0.00,Snow,Light Snow,250,2013-02-03 18:40:00
1:51 PM,21.2,15.8,80,29.68,1.8,West,9.2,-,0.00,Snow,Light Snow,260,2013-02-03 18:51:00
1:54 PM,21.9,17.1,82,29.78,1.5,WSW,8.1,-,0.00,Snow,Light Snow,250,2013-02-03 18:54:00
2:24 PM,21.2,17.6,86,29.68,1.8,West,11.5,-,0.00,Snow,Light Snow,260,2013-02-03 19:24:00
2:44 PM,21.2,15.8,80,29.68,3.0,West,13.8,-,0.00,Snow,Light Snow,260,2013-02-03 19:44:00
2:51 PM,21.2,15.8,80,29.68,1.8,WSW,11.5,-,0.00,Snow,Light Snow,250,2013-02-03 19:51:00
2:54 PM,21.0,16.0,81,29.78,1.8,WSW,11.5,-,0.00,Snow,Light Snow,250,2013-02-03 19:54:00
3:25 PM,21.2,17.6,86,29.69,2.0,West,9.2,-,0.00,Snow,Light Snow,270,2013-02-03 20:25:00
3:41 PM,21.2,17.6,86,29.70,1.0,WNW,10.4,-,0.00,Snow,Light Snow,290,2013-02-03 20:41:00
3:45 PM,19.4,17.6,93,29.70,0.8,WNW,10.4,-,0.00,Snow,Light Snow,300,2013-02-03 20:45:00
3:54 PM,19.9,17.1,89,29.80,0.5,West,12.7,-,0.00,Fog-Snow,Snow,280,2013-02-03 20:54:00
4:18 PM,19.4,17.6,93,29.70,1.5,West,9.2,-,0.00,Snow,Light Snow,270,2013-02-03 21:18:00
4:35 PM,19.4,17.6,93,29.70,1.2,West,9.2,-,0.00,Snow,Light Snow,280,2013-02-03 21:35:00
4:45 PM,19.4,15.8,86,29.70,1.2,West,15.0,20.7,0.00,Snow,Light Snow,280,2013-02-03 21:45:00
4:54 PM,19.9,16.0,85,29.81,1.0,West,16.1,-,0.00,Snow,Light Snow,280,2013-02-03 21:54:00
5:04 PM,19.4,15.8,86,29.70,0.8,WNW,17.3,25.3,0.00,Snow,Light Snow,290,2013-02-03 22:04:00
5:31 PM,17.6,14.0,86,29.71,1.0,West,12.7,-,0.00,Snow,Light Snow,280,2013-02-03 22:31:00
5:49 PM,17.6,15.8,93,29.72,0.8,West,11.5,24.2,0.00,Snow,Light Snow,280,2013-02-03 22:49:00
5:54 PM,18.0,15.1,88,29.83,0.8,West,12.7,21.9,0.00,Snow,Light Snow,280,2013-02-03 22:54:00
6:15 PM,17.6,12.2,79,29.74,1.0,West,18.4,28.8,0.01,Snow,Light Snow,280,2013-02-03 23:15:00
6:37 PM,15.8,12.2,86,29.75,1.0,West,18.4,27.6,0.01,Snow,Light Snow,280,2013-02-03 23:37:00
6:54 PM,16.0,12.0,84,29.88,1.5,West,17.3,26.5,0.01,Snow,Light Snow,280,2013-02-03 23:54:00
7:33 PM,15.8,10.4,79,29.78,2.5,West,16.1,-,0.00,Snow,Light Snow,280,2013-02-04 00:33:00
7:54 PM,15.1,12.0,88,29.91,1.5,West,12.7,-,0.00,Snow,Light Snow,280,2013-02-04 00:54:00
8:14 PM,15.8,10.4,79,29.79,1.0,West,13.8,24.2,0.00,Snow,Light Snow,280,2013-02-04 01:14:00
8:54 PM,14.0,10.9,88,29.91,1.0,WNW,18.4,-,0.00,Snow,Light Snow,290,2013-02-04 01:54:00
9:38 PM,14.0,10.4,86,29.80,0.8,WNW,24.2,29.9,0.00,Snow,Light Snow,290,2013-02-04 02:38:00
9:54 PM,14.0,10.0,84,29.92,1.0,WNW,18.4,29.9,0.00,Snow,Light Snow,290,2013-02-04 02:54:00
10:40 PM,14.0,10.4,86,29.81,0.8,West,13.8,24.2,0.00,Snow,Light Snow,280,2013-02-04 03:40:00
10:51 PM,14.0,10.4,86,29.82,0.5,WNW,20.7,27.6,0.00,Fog-Snow,Snow,290,2013-02-04 03:51:00
10:54 PM,14.0,10.0,84,29.94,0.5,WNW,27.6,33.4,0.00,Fog-Snow,Snow,290,2013-02-04 03:54:00
11:06 PM,12.2,8.6,85,29.83,1.0,West,19.6,33.4,0.00,Snow,Light Snow,280,2013-02-04 04:06:00
11:12 PM,12.2,8.6,85,29.83,2.0,West,19.6,27.6,0.00,Snow,Light Snow,280,2013-02-04 04:12:00
11:33 PM,12.2,8.6,85,29.84,1.8,West,18.4,31.1,0.00,Snow,Light Snow,280,2013-02-04 04:33:00
11:54 PM,12.9,8.1,81,29.96,1.5,West,18.4,27.6,0.00,Snow,Light Snow,280,2013-02-04 04:54:00